This is the latest recevied weather packets stored in our database for station/object KD5HIA. If no packets are shown the sender has not sent any weather packets the latest 10 day(s).
| Time | Temp. | Humidity | Pressure | Rain* | Wind** | Luminosity | Snow |
|---|---|---|---|---|---|---|---|
| 1777904417 | 19.44° C | 73% | 1012.7 hPa | 0 mm | - | 265 W/m² | - |
| 1777903817 | 18.89° C | 75% | 1012.9 hPa | 0 mm | - | 151 W/m² | - |
| 1777903217 | 18.89° C | 74% | 1012.8 hPa | 0 mm | - | 250 W/m² | - |
| 1777902617 | 18.33° C | 75% | 1012.8 hPa | 0 mm | - | 226 W/m² | - |
| 1777902017 | 18.33° C | 76% | 1013 hPa | 0 mm | - | 230 W/m² | - |
| 1777901417 | 17.78° C | 78% | 1012.7 hPa | 0 mm | - | 167 W/m² | - |
| 1777900817 | 17.22° C | 78% | 1012.8 hPa | 0 mm | - | 146 W/m² | - |
| 1777900217 | 17.22° C | 78% | 1012.7 hPa | 0 mm | - | 116 W/m² | - |
| 1777899617 | 16.67° C | 79% | 1012.4 hPa | 0 mm | - | 94 W/m² | - |
| 1777899017 | 16.67° C | 79% | 1012.2 hPa | 0 mm | - | 73 W/m² | - |
| 1777898417 | 16.11° C | 79% | 1012.3 hPa | 0 mm | - | 52 W/m² | - |
| 1777897817 | 16.11° C | 79% | 1012.2 hPa | 0 mm | - | 32 W/m² | - |
| 1777897217 | 16.11° C | 79% | 1012.2 hPa | 0 mm | - | 24 W/m² | - |
| 1777896617 | 16.11° C | 79% | 1012.3 hPa | 0 mm | - | 12 W/m² | - |
| 1777896017 | 16.11° C | 79% | 1012.1 hPa | 0 mm | - | 4 W/m² | - |
| 1777895417 | 15.56° C | 79% | 1012.4 hPa | 0 mm | - | 0 W/m² | - |
| 1777894817 | 15.56° C | 78% | 1012.3 hPa | 0 mm | - | 0 W/m² | - |
| 1777894217 | 16.11° C | 77% | 1012.4 hPa | 0 mm | - | 0 W/m² | - |
| 1777893617 | 15.56° C | 77% | 1012.4 hPa | 0 mm | - | 0 W/m² | - |
| 1777893017 | 15.56° C | 76% | 1012.3 hPa | 0 mm | - | 0 W/m² | - |
| 1777892417 | 16.11° C | 75% | 1012.6 hPa | 0 mm | - | 0 W/m² | - |
| 1777891817 | 16.11° C | 74% | 1012.2 hPa | 0 mm | - | 0 W/m² | - |
| 1777891217 | 16.11° C | 73% | 1012.3 hPa | 0 mm | - | 0 W/m² | - |
| 1777890617 | 16.11° C | 73% | 1012.5 hPa | 0 mm | - | 0 W/m² | - |
| 1777890017 | 16.11° C | 72% | 1012.5 hPa | 0 mm | - | 0 W/m² | - |
* Rain latest hour (hover to see other rain measurements)
** Current wind speed in m/s (hover to see current wind gust speed)